1st Responders/1st Detectors/Storm Spotters Weather Summary for Elliott County, KY

Forecast Maps


Reg. NEXRAD Animation


National Fire Danger: Day 1 & 2 Map

Current NWS Watch/Warnings

SPC Convective Day 1 Outlook


Day 2 Outlook

(Click images to enlarge|Page will refresh every 5 minutes)
UK Ag. Weather Center Desktop Severe Weather Service[HERE]
Elliott County, KY Hazardous Weather Outlook Webcast
(9 AM to 9 PM Mon-Fri)
[Fast]
[Dial-up]


UKAWC 1st Detectors/1st Responders Precision Weather Forecast For ELLIOTT County, Kentucky
(based on the NWS County Digital Forecast)

ISSUED AT 18:00 UTC ON TUESDAY NOV 21 2017
DAY TUESDAY
EDT 3HR 3P 4P 5P 6P 7P
MAX/MIN -- -- -- -- 59°
TEMP 58° 58° 58° 56° 54°
SKY COVER 29% 27% 32% 37% 38%
Clouds
DEW PT 36° 36° 38° 38° 36°
RH 43% 43% 46% 48% 50%
POP 12HR -- -- -- -- --
RAIN/SNOW (liq.equ) -- -- -- -- --
SNOWFALL -- -- -- -- --
WIND SPEED(MPH) 10 9 7 7 6
WIND Gust(MPH) 16 15 9 8 7
WIND DIR SW SW SW SW W
DEW -- -- -- -- --
HeatIndex 58 58 58 56 54
WIND CHILL -- -- -- -- --
SPRAY COND
DRY COND
LIVESTOCK COLDSTRESS



DAY WEDNESDAY THURSDAY FRIDAY SATURDAY SUNDAY MONDAY
EDT 6HR 8P 9P 10P 11P MIDN 1A 2A 3A 4A 5A 6A 7A 8A 9A 10A 11A NOON 1P 2P 3P 4P 5P 6P 7P 8P 9P 10P 11P MIDN 1A 2A 5A 8A 11A 2P 5P 8P 2A 8A 2P 8P 2A 8A 2P 8P 2A 8A 2P 8P 2A 8A 2P 8P
MAX/MIN -- -- -- -- -- -- -- -- -- -- -- -- 36° -- -- -- -- -- -- -- -- -- -- 43° -- -- -- -- -- -- -- -- 25° -- -- 45° -- -- 29° 54° -- -- 38° 54° -- -- 32° 40° -- -- 23° 41° --
TEMP 54° 52° 50° 49° 47° 45° 45° 43° 41° 40° 38° 38° 36° 36° 36° 38° 38° 40° 41° 43° 43° 41° 38° 36° 34° 34° 31° 31° 29° 29° 27° 27° 25° 34° 43° 43° 38° 32° 29° 52° 43° 38° 40° 52° 49° 38° 32° 40° 36° 31° 25° 40° 34°
SKY COVER 35% 30% 20% 21% 20% 35% 55% 74% 93% 92% 80% 68% 56% 50% 45% 40% 30% 19% 9% 8% 5% 4% 4% 5% 6% 5% 3% 3% 4% 7% 8% 4% 32% 26% 16% 20% 24% 9% 4% 2% 4% 34% 72% 39% 34% 33% 46% 32% 32% 38% 16% 14% 19%
Clouds
DEW PT 36° 36° 36° 34° 34° 34° 34° 34° 34° 34° 31° 31° 29° 27° 27° 25° 25° 23° 23° 23° 23° 23° 23° 23° 23° 23° 25° 25° 25° 23° 23° 22° 22° 25° 25° 25° 25° 25° 25° 27° 31° 32° 36° 38° 36° 29° 27° 25° 23° 22° 20° 22° 23°
RH 52% 56% 56% 58% 60% 65% 67% 70% 76% 76% 75% 75% 75% 72% 66% 61% 56% 50% 48% 46% 46% 48% 54% 61% 63% 65% 74% 75% 81% 80% 85% 84% 91% 66% 48% 46% 59% 75% 81% 37% 61% 78% 81% 56% 60% 69% 81% 52% 61% 68% 81% 48% 63%
POP 12HR 0% -- -- -- -- -- -- -- -- -- -- -- 2% -- -- -- -- -- -- -- -- -- -- -- 0% -- -- -- -- -- -- -- 0% -- -- -- 2% -- 2% -- 2% -- 8% -- 7% -- 3% -- 3% -- 2% -- 2%
RAIN/SNOW (liq.equ) 0.00in -- -- -- -- -- 0.00in -- -- -- -- -- 0.00in -- -- -- -- -- 0.00in -- -- -- -- -- 0.00in -- -- -- -- -- 0.00in -- 0.00in -- 0.00in -- 0.00in -- -- -- -- -- -- -- -- -- -- -- -- -- -- -- --
SNOWFALL 0in -- -- -- -- -- 0in -- -- -- -- -- 0in -- -- -- -- -- 0in -- -- -- -- -- 0in -- -- -- -- -- 0in -- 0in -- 0in -- 0in -- -- -- -- -- -- -- -- -- -- -- -- -- -- -- --
WIND SPEED(MPH) 6 6 6 6 6 6 6 7 7 7 7 7 6 6 5 5 5 5 5 5 5 5 5 2 2 2 1 1 1 1 1 0 1 1 1 1 1 1 2 5 5 7 7 7 7 6 6 7 6 5 5 5 2
WIND DIR W W W W W W W NW NW NW N N N N N N N N N N N N N N N N NE NE NE NE NE NE E SE W W SW SW S S S SW SW W W NW NW NW NW NW W W SW
HeatIndex 54 52 50 49 47 45 41 40 37 35 34 32 31 31 33 34 35 38 39 40 40 39 35 33 32 31 31 31 29 29 27 27 25 34 43 43 38 32 26 52 40 33 36 52 49 34 27 35 31 26 19 38 32
WIND CHILL -- -- -- -- -- 42° 42° 39° 36° 35° 33° 33° 31° 31° 32° 35° 35° 37° 38° 40° 40° 38° 35° -- -- -- -- -- -- -- -- -- -- -- -- -- -- -- -- -- 40° 33° 35° -- -- 34° 27° 35° 31° 26° 19° 37° --
SPRAY COND
DRY COND
LIVESTOCK COLDSTRESS

Click on individual weather variable above in left-hand column (ie., TEMP, RH, QPF 12HR) to view state forecast maps






NWS 48 Hr. Forecast Maps,

Regional Hourly Observations For ELLIOTT County, Kentucky
Issued at 100 PM EST TUE NOV 21 2017
NORTHEAST KENTUCKY
  
CITY           SKY/WX    TMP DP  RH WIND       PRES   REMARKS
LEXINGTON      SUNNY     56  33  42 SW21G31   29.98F                  
COVINGTON      MOSUNNY   54  32  43 SW14G21   29.93F                  
FRANKFORT      SUNNY     56  29  35 SW21G28   29.97F                  


Current NOWCAST not available:
Nowcasts are not issued routinely during fair weather. Only when
precipitation or other significant weather is occuring in this county will these
forecasts be issued. Currently, there is no short term forecast in effect.


Fire Weather Forecast For ELLIOTT County, KY
Provided by the National Weather Service:

Issued at: Tue Nov 21 13:05:01 EST 2017

323 AM EST Tue Nov 21 2017

.TODAY...
Sky/weather.........Sunny. 
Max Temperature.....58-63. 
   24 hr trend......11 degrees warmer. 
Min Humidity........37-47 percent. 
   24 hr trend......5 percent wetter. 
Wind (20 ft)........Southwest winds around 15 mph with gusts up to 
                    25 mph. 
LAL.................1. 
Haines Index........5 or moderate potential for large plume 
                    dominated fire growth. 
Mixing Height.......2900 ft agl. 
Transport Winds.....Southwest around 10 mph increasing to around 20 
                    mph in the afternoon. 
Dispersion Index....55. 
Vent Rate...........Good (55300 knot-ft). 
ADI.................39 increasing to 62 in the afternoon. 
LVORI...............3. 
Prob of precip......0 percent. 
QPF (inches)........None. 

.TONIGHT...
Sky/weather.........Partly cloudy then becoming mostly cloudy. 
Min Temperature.....34-39. 
   24 hr trend......7 degrees warmer. 
Max Humidity........79 percent. 
   24 hr trend......12 percent drier. 
Wind (20 ft)........West winds 5 to 10 mph shifting to the 
                    northwest late. 
LAL.................1. 
Haines Index........3 or very low potential for large plume 
                    dominated fire growth. 
ADI.................12. 
LVORI...............4. 
Prob of precip......0 percent. 
QPF (inches)........None. 

.WEDNESDAY...
Sky/weather.........Mostly sunny. 
Max Temperature.....Around 43. 
   24 hr trend......18 degrees cooler. 
Min Humidity........47 percent. 
   24 hr trend......7 percent wetter. 
Wind (20 ft)........North winds around 5 mph. 
LAL.................1. 
Haines Index........4 or low potential for large plume dominated 
                    fire growth. 
Mixing Height.......3100 ft agl. 
Transport Winds.....North 5 to 10 mph. 
Dispersion Index....29. 
Vent Rate...........Poor (28600 knot-ft). 
ADI.................30. 
LVORI...............3. 
Prob of precip......0 percent. 
QPF (inches)........None. 


SPC's Fire Weather Web Tool (Excellent!), SPC's Fire Weather Outlooks, NWS Fire Weather WEB, Fire Danger Class Map,
Keetch-Byram Drought Index, ROMAN Web, Haines Index ,
WFAS's 10-hr Dead Fuel Moist., WFAS's 100-hr Dead Fuel Moist., Probablity of Ignition, Visual blackness Map, Palmer Drought Index, HPC's Rainfall Forecast Maps


Hazardous Weather Outlook For ELLIOTT County, Kentucky
243 AM EST Tue Nov 21 2017

 DAY ONE  Today and Tonight.

No hazardous weather is expected at this time.  

 DAYS TWO THROUGH SEVEN  Wednesday through Monday.

No hazardous weather is expected at this time.

 SPOTTER INFORMATION STATEMENT  

Spotter activation is not anticipated.

Latest ELLIOTT County, Kentucky Watches, Warnings and Advisories.
Additional Drought Info.: UKAWC Drought Page, Kentucky Drought Watch


7-Day Forecast For ELLIOTT County, KY

TODAY
Sunny. Highs around 60. Southwest winds around 10 mph.

TONIGHT
Mostly clear in the evening then becoming mostly cloudy. Lows in the mid 30s. Light winds.

WEDNESDAY
Sunny. Highs in the lower 40s. Light winds.

WEDNESDAY NIGHT
Cold. Mostly clear. Lows in the mid 20s. Light winds.

THANKSGIVING DAY
Sunny. Highs in the mid 40s. Light winds.

THURSDAY NIGHT
Cold. Mostly clear. Lows 27 to 32.

FRIDAY
Sunny. Highs in the lower 50s.

FRIDAY NIGHT
Partly cloudy. Lows around 40.

SATURDAY
Mostly sunny. Highs in the mid 50s.

SATURDAY NIGHT
Partly cloudy. Lows in the lower 30s.

SUNDAY
Mostly sunny. Highs in the lower 40s.

SUNDAY NIGHT
Cold. Partly cloudy. Lows in the mid 20s.

MONDAY
Sunny. Highs in the lower 40s.

Ag Weather Center, Department of Biosystems & Agricultural Engineering, University of Kentucky